When you browse on this site, cookies collect data to enhance your experience and personalize the content and advertising you see.
Visit our Privacy Policy to learn more. By continuing to use the site, you agree to this use of cookies and data.
  • In Schweiz
  • Länderverzeichnis
  • Für 7 Tage
  • Wassertemperatur
  • Satellitenkarten
  • Wetterkarte
  • Widgets
  • user-avatar
    Anmelden

    Stündliche Wetter Lausanne

    Heute, 17 Januar, Donnerstag

    Zeit Temperatur Niederschläge Wind Luftdruck Luftfeuchtigkeit
    00:00 +3°C° 0 mm 6 m/S 719 mmHg 82%
    01:00 +3°C° 0 mm 5 m/S 719 mmHg 84%
    02:00 +3°C° 0 mm 5 m/S 719 mmHg 86%
    03:00 +3°C° 0 mm 5 m/S 718 mmHg 88%
    04:00 +3°C° 0 mm 5 m/S 718 mmHg 88%
    05:00 +4°C° 0 mm 4 m/S 718 mmHg 89%
    06:00 +5°C° 0 mm 5 m/S 717 mmHg 90%
    07:00 +5°C° 0.3 mm 5 m/S 717 mmHg 90%
    08:00 +5°C° 0.3 mm 5 m/S 717 mmHg 90%
    09:00 +5°C° 0.3 mm 5 m/S 717 mmHg 90%
    10:00 +5°C° 0.8 mm 5 m/S 717 mmHg 90%
    11:00 +5°C° 0.8 mm 4 m/S 717 mmHg 90%
    12:00 +4°C° 0.8 mm 4 m/S 717 mmHg 90%
    13:00 +4°C° 0.5 mm 4 m/S 717 mmHg 90%
    14:00 +4°C° 0.5 mm 4 m/S 717 mmHg 89%
    15:00 +3°C° 0.5 mm 3 m/S 717 mmHg 89%
    16:00 +3°C° 0.2 mm 3 m/S 718 mmHg 89%
    17:00 +2°C° 0.2 mm 3 m/S 718 mmHg 90%
    18:00 +3°C° 0.2 mm 2 m/S 718 mmHg 90%
    19:00 +2°C° 0.1 mm 2 m/S 719 mmHg 91%
    20:00 +2°C° 0.1 mm 2 m/S 719 mmHg 91%
    21:00 +2°C° 0.1 mm 1 m/S 719 mmHg 92%
    22:00 +2°C° 0 mm 1 m/S 720 mmHg 92%
    23:00 +2°C° 0 mm 1 m/S 720 mmHg 92%

    Morgen, 18 Januar, Freitag

    Zeit Temperatur Niederschläge Wind Luftdruck Luftfeuchtigkeit
    00:00 +1°C° 0 mm 1 m/S 720 mmHg 93%
    01:00 +1°C° 0.1 mm 1 m/S 720 mmHg 92%
    02:00 +1°C° 0.1 mm 1 m/S 721 mmHg 92%
    03:00 +1°C° 0.1 mm 1 m/S 721 mmHg 92%
    04:00 +1°C° 0.1 mm 1 m/S 721 mmHg 92%
    05:00 0°C° 0.1 mm 1 m/S 721 mmHg 92%
    06:00 -3°C° 0.1 mm 2 m/S 721 mmHg 92%
    07:00 -2°C° 0 mm 2 m/S 721 mmHg 90%
    08:00 -2°C° 0 mm 2 m/S 721 mmHg 88%
    09:00 -1°C° 0 mm 3 m/S 721 mmHg 86%
    10:00 -1°C° 0 mm 3 m/S 721 mmHg 82%
    11:00 0°C° 0 mm 3 m/S 721 mmHg 79%
    12:00 +1°C° 0 mm 3 m/S 720 mmHg 75%
    13:00 0°C° 0 mm 3 m/S 720 mmHg 77%
    14:00 0°C° 0 mm 3 m/S 720 mmHg 79%
    15:00 0°C° 0 mm 3 m/S 720 mmHg 80%
    16:00 -2°C° 0 mm 3 m/S 720 mmHg 84%
    17:00 -3°C° 0 mm 2 m/S 720 mmHg 89%
    18:00 -4°C° 0 mm 2 m/S 721 mmHg 93%
    19:00 -2°C° 0 mm 1 m/S 721 mmHg 92%
    20:00 -2°C° 0 mm 1 m/S 721 mmHg 91%
    21:00 -2°C° 0 mm 1 m/S 721 mmHg 90%
    22:00 -2°C° 0 mm 1 m/S 721 mmHg 89%
    23:00 -2°C° 0 mm 1 m/S 721 mmHg 87%

    übermorgen, 19 Januar, Samstag

    Zeit Temperatur Niederschläge Wind Luftdruck Luftfeuchtigkeit
    00:00 -2°C° 0 mm 1 m/S 721 mmHg 86%
    01:00 -2°C° 0 mm 1 m/S 721 mmHg 85%
    02:00 -3°C° 0 mm 0 m/S 720 mmHg 84%
    03:00 -2°C° 0 mm 0 m/S 720 mmHg 83%
    04:00 -3°C° 0 mm 0 m/S 720 mmHg 82%
    05:00 -3°C° 0 mm 0 m/S 720 mmHg 81%
    06:00 -3°C° 0 mm 0 m/S 720 mmHg 80%
    07:00 -2°C° 0 mm 0 m/S 720 mmHg 78%
    08:00 -1°C° 0 mm 0 m/S 720 mmHg 76%
    09:00 0°C° 0 mm 0 m/S 720 mmHg 74%
    10:00 +2°C° 0 mm 1 m/S 719 mmHg 71%
    11:00 +3°C° 0 mm 1 m/S 719 mmHg 67%
    12:00 +5°C° 0 mm 1 m/S 718 mmHg 64%
    13:00 +5°C° 0 mm 1 m/S 718 mmHg 67%
    14:00 +4°C° 0 mm 1 m/S 718 mmHg 71%
    15:00 +4°C° 0 mm 1 m/S 717 mmHg 75%
    16:00 +3°C° 0 mm 1 m/S 718 mmHg 78%
    17:00 +1°C° 0 mm 1 m/S 718 mmHg 80%
    18:00 0°C° 0 mm 1 m/S 718 mmHg 83%
    19:00 0°C° 0 mm 1 m/S 718 mmHg 83%
    20:00 -2°C° 0 mm 2 m/S 718 mmHg 82%
    21:00 -3°C° 0 mm 2 m/S 718 mmHg 82%
    22:00 -2°C° 0 mm 2 m/S 718 mmHg 81%
    23:00 -2°C° 0 mm 2 m/S 718 mmHg 80%

    20 Januar, Sonntag

    Zeit Temperatur Niederschläge Wind Luftdruck Luftfeuchtigkeit
    00:00 -2°C° 0 mm 2 m/S 718 mmHg 80%
    01:00 -2°C° 0 mm 2 m/S 718 mmHg 80%
    02:00 0°C° 0 mm 1 m/S 718 mmHg 81%
    03:00 +1°C° 0 mm 1 m/S 718 mmHg 81%
    04:00 +1°C° 0.1 mm 1 m/S 718 mmHg 82%
    05:00 +1°C° 0.1 mm 1 m/S 718 mmHg 82%
    06:00 +1°C° 0.1 mm 1 m/S 718 mmHg 82%
    07:00 +1°C° 0.2 mm 1 m/S 718 mmHg 83%
    08:00 +2°C° 0.2 mm 1 m/S 719 mmHg 84%
    09:00 +2°C° 0.2 mm 1 m/S 719 mmHg 84%
    10:00 +2°C° 0.1 mm 2 m/S 719 mmHg 84%
    11:00 +3°C° 0.1 mm 2 m/S 719 mmHg 83%
    12:00 +4°C° 0.1 mm 2 m/S 719 mmHg 83%
    13:00 +4°C° 0.1 mm 2 m/S 719 mmHg 84%
    14:00 +5°C° 0.1 mm 1 m/S 719 mmHg 86%
    15:00 +5°C° 0.1 mm 1 m/S 719 mmHg 87%
    16:00 +4°C° 0.1 mm 1 m/S 720 mmHg 89%
    17:00 +2°C° 0.1 mm 0 m/S 720 mmHg 91%
    18:00 +1°C° 0.1 mm 0 m/S 721 mmHg 92%
    19:00 +1°C° 0 mm 0 m/S 721 mmHg 92%
    20:00 0°C° 0 mm 0 m/S 722 mmHg 92%
    21:00 0°C° 0 mm 0 m/S 722 mmHg 92%
    22:00 +1°C° 0 mm 1 m/S 722 mmHg 92%
    23:00 +1°C° 0 mm 1 m/S 723 mmHg 91%

    21 Januar, Montag

    Zeit Temperatur Niederschläge Wind Luftdruck Luftfeuchtigkeit
    00:00 +1°C° 0 mm 1 m/S 723 mmHg 91%
    01:00 0°C° 0 mm 1 m/S 723 mmHg 90%
    02:00 0°C° 0 mm 1 m/S 723 mmHg 90%
    03:00 0°C° 0 mm 1 m/S 723 mmHg 90%
    04:00 0°C° 0 mm 1 m/S 723 mmHg 90%
    05:00 0°C° 0 mm 1 m/S 723 mmHg 89%
    06:00 0°C° 0 mm 1 m/S 724 mmHg 89%
    07:00 +1°C° 0 mm 1 m/S 724 mmHg 88%
    08:00 0°C° 0 mm 0 m/S 724 mmHg 86%
    09:00 +1°C° 0 mm 0 m/S 724 mmHg 84%
    10:00 +3°C° 0 mm 1 m/S 724 mmHg 82%
    11:00 +3°C° 0 mm 1 m/S 724 mmHg 80%
    12:00 +4°C° 0 mm 1 m/S 724 mmHg 78%
    13:00 +4°C° 0 mm 1 m/S 724 mmHg 79%
    14:00 +3°C° 0 mm 1 m/S 724 mmHg 80%
    15:00 +3°C° 0 mm 1 m/S 723 mmHg 81%
    16:00 +2°C° 0 mm 1 m/S 724 mmHg 84%
    17:00 +1°C° 0 mm 1 m/S 724 mmHg 87%
    18:00 -1°C° 0 mm 1 m/S 724 mmHg 90%
    19:00 -1°C° 0 mm 1 m/S 724 mmHg 89%
    20:00 -2°C° 0 mm 1 m/S 724 mmHg 89%
    21:00 -2°C° 0 mm 1 m/S 724 mmHg 88%
    22:00 -2°C° 0 mm 1 m/S 723 mmHg 86%
    23:00 -3°C° 0 mm 1 m/S 723 mmHg 85%

    22 Januar, Dienstag

    Zeit Temperatur Niederschläge Wind Luftdruck Luftfeuchtigkeit
    00:00 -3°C° 0 mm 1 m/S 722 mmHg 83%
    01:00 -3°C° 0 mm 1 m/S 721 mmHg 82%
    02:00 -3°C° 0 mm 1 m/S 721 mmHg 82%
    03:00 -3°C° 0 mm 1 m/S 720 mmHg 81%
    04:00 -3°C° 0 mm 1 m/S 719 mmHg 80%
    05:00 -3°C° 0 mm 1 m/S 718 mmHg 80%
    06:00 -3°C° 0 mm 1 m/S 718 mmHg 79%
    07:00 -2°C° 0 mm 1 m/S 717 mmHg 77%
    08:00 -1°C° 0 mm 1 m/S 716 mmHg 75%
    09:00 0°C° 0 mm 1 m/S 715 mmHg 73%
    10:00 +1°C° 0 mm 1 m/S 714 mmHg 70%
    11:00 +1°C° 0 mm 0 m/S 713 mmHg 67%
    12:00 +3°C° 0 mm 0 m/S 711 mmHg 65%
    13:00 +2°C° 0 mm 0 m/S 711 mmHg 68%
    14:00 +2°C° 0 mm 0 m/S 710 mmHg 71%
    15:00 +2°C° 0 mm 0 m/S 709 mmHg 75%
    16:00 +1°C° 0 mm 0 m/S 709 mmHg 77%
    17:00 +1°C° 0 mm 1 m/S 709 mmHg 79%
    18:00 +1°C° 0 mm 1 m/S 709 mmHg 81%
    19:00 +1°C° 0.1 mm 1 m/S 709 mmHg 83%
    20:00 -1°C° 0.1 mm 2 m/S 710 mmHg 85%
    21:00 -1°C° 0.1 mm 2 m/S 710 mmHg 87%
    22:00 -1°C° 0.2 mm 2 m/S 710 mmHg 89%
    23:00 -2°C° 0.2 mm 2 m/S 710 mmHg 91%
    Mehr zeigen